Regional Weather Roundup
Issued by NWS Charleston, SC

Current Version | Previous Version | Graphics & Text | Print | Product List | Glossary On
Versions: 1 2 3 4 5 6 7 8 9 10 11 12 13 14 15 16 17 18 19 20 21 22 23 24 25 26 27 28 29 30 31 32 33 34 35 36 37 38 39 40 41 42 43 44 45 46 47 48 49 50
000
ASUS42 KCHS 160525
RWRCHS

REGIONAL WEATHER ROUNDUP
NATIONAL WEATHER SERVICE CHARLESTON SC
100 AM EDT TUE SEP 16 2014

NOTE: "FAIR" INDICATES FEW OR NO CLOUDS BELOW 12,000 FEET WITH NO
SIGNIFICANT WEATHER AND/OR OBSTRUCTIONS TO VISIBILITY.

NOT ALL STATIONS ARE QUALITY CONTROLLED BY THE NATIONAL
WEATHER SERVICE. USE DATA WITH CAUTION...ESPECIALLY
DEWPOINT OBSERVATIONS.

SCZ027-030-031-034>040-042>050-160600-
...SOUTH CAROLINA...

CITY           SKY/WX    TMP DP  RH WIND       PRES   REMARKS
N CHARLESTON   CLOUDY    75  73  94 CALM      30.09F FOG
WATERFRONT PRK   N/A     81 N/A N/A CALM        N/A
FORT JOHNSON   NOT AVBL
MOUNT PLEASANT CLOUDY    73  73 100 CALM      30.08F FOG
JOHNS ISLAND   FOG       73  73 100 CALM      30.08F VSB 0
PINOPOLIS      NOT AVBL
MONCKS CORNER  NOT AVBL
SUMMERVILLE    FOG       72  72 100 CALM      30.10F VSB 1
BEAUFORT MCAS  CLOUDY    76  73  91 CALM      30.08F
BEAUFORT ARPT  FAIR      75  75 100 CALM      30.08F FOG
HILTON HEAD IS CLOUDY    75  75 100 CALM      30.09F FOG
GEORGETOWN     NOT AVBL
WALTERBORO     CLOUDY    73 N/A N/A CALM      30.09F
ORANGEBURG     MOCLDY    74  71  91 CALM      30.09F
BARNWELL       CLOUDY    73  73 100 NW3       30.11F FOG
AIKEN          CLOUDY    72  72 100 CALM      30.15F
MANNING        FAIR      72 N/A N/A CALM      30.10S
KINGSTREE      NOT AVBL
COLUMBIA       CLOUDY    74  70  87 W3        30.10F
SUMTER         MOCLDY    73  70  88 W2        30.08F
FLORENCE       CLOUDY    73  70  90 CALM      30.09F
MYRTLE BEACH   CLOUDY    72  68  88 N3        30.09F
N MYRTLE BEACH CLOUDY    72  69  90 NE3       30.09F

$$

GAZ063-065-086>088-099>101-113>116-118-119-134-136>141-150-160600-
...GEORGIA...

CITY           SKY/WX    TMP DP  RH WIND       PRES   REMARKS
SAVANNAH ARPT  CLOUDY    76  72  87 CALM      30.10F
HUNTER AAF     CLOUDY    75  75 100 N1        30.07F
FORT STEWART   CLOUDY    75  74  96 CALM      30.08F
STATESBORO     NOT AVBL
SYLVANIA       CLOUDY    74  74  98 CALM      30.10F FOG
CLAXTON        NOT AVBL
THOMSON        CLOUDY    74  74 100 CALM      30.16F
AUGUSTA-BUSH   LGT RAIN  73  72  96 CALM      30.09F FOG
AUGUSTA-DANIEL CLOUDY    75  72  90 E3        30.12F
SWAINSBORO     FAIR      73  73 100 CALM      30.11S
VIDALIA        CLOUDY    73  73 100 CALM      30.10S
ALMA           CLOUDY    73  72  96 E3        30.09F
WAYCROSS       CLOUDY    76  76 100 SW5       30.09F FOG
JESUP            N/A     75  73  94 CALM      30.09F
BRUNSWICK      CLOUDY    73  72  94 CALM      30.08F
SAINT SIMONS   CLOUDY    75  74  96 CALM      30.08F

$$

SCZ027-028-034-036>038-045-046-048>050-GAZ119-141-160600-
...LAKE AND SUPPLEMENTAL COASTAL OBSERVATIONS...

STATION/POSITION TIME  TEMP    WIND        PRES    WAVE   SWELL
                       AIR SEA DIR/SP/G            HT/PER HT/PER/DIR
                 (UTC) (F)     (DEG/KT/KT) (MB)    (FT/S) (FT/S/D)
UPR LAKE MARION  NOT AVBL
WINYAH BAY       0500   73     330/  1     1019.0S
LAKE MURRAY      0500   75     190/  7/  8 1019.3R
ACE BASIN NERRS  0500   73        CALM     1019.0S
FORT PULASKI     0500          360/  2/  2 1018.9F
SAPELO ISLAND    0500   76        CALM     1019.0F

$$

ANZ835-935-AMZ111-154-330-350-352-354-374-450-454-472-160600-
...C-MAN AND BUOY OBSERVATIONS...

STATION/POSITION TIME  TEMP    WIND        PRES    WAVE   SWELL
                       AIR SEA DIR/SP/G            HT/PER HT/PER/DIR
                 (UTC) (F)     (DEG/KT/KT) (MB)    (FT/S) (FT/S/D)
FOLLY BEACH CMAN 0500   76      CALM  /  1 1019.2F
BUOY 41004       0500   80 83  210/  2/  4 1018.5F   2/ 8   2/ 8
BUOY 41008       0500   80 84  270/  8/ 10 1019.0F   2/ 6   2/ 60/ 6
5E ST. MARYS GA  0500      84                N/A     2/ 6
FRYING PAN BUOY  NOT AVBL
BUOY 41025       0500   73     340/  6/  8 1019.2F   3/ 8   3/ 40/ 8
CAPE LOOKOUT NC  0500   75      70/  2/  2 1019.1F
BUOY 41002       0430   80 83  290/  6/  8 1019.3F   3/ 8   3/ 20/ 8
BUOY 41010       0500   83 85  220/  6/  8 1020.0F   2/ 7   2/ 80/ 7
BUOY 41012       NOT AVBL
ST AUGUSTINE FL  0500   77     230/  3/  4 1020.7F
CAPERS NEARSHORE 0400   80     230/  2/  4   N/A
FRIPP NEARSHORE  NOT AVBL


$$



USA.gov is the U.S. government's official web portal to all federal, state and local government web resources and services.